Location: Unspecified
(52.1971°N, 0.0000°E)
Time: 16:57:44
(UTC+00:00)

YUBILEINY - Pass Details

Date: 23 December 2019
Orbit: 1478 x 1509 km, 82.5° (Epoch: 19 January)

Event Time Altitude Azimuth Distance (km) Brightness Sun altitude
Rises 17:47:19 0° 124° (SE) 4,603 ? -16.6°
Enters shadow 17:47:26 - 124° (ESE) 4,571 ? -16.6°
Exits shadow 18:03:23 - 25° (NNE) 4,046 ? -18.9°
Sets 18:05:35 0° 16° (NNE) 4,612 ? -19.3°
